User: anonymous   Login
Location: Caltech
(34.1382°N, 118.1253°W)
Time: 23:42:37
(UTC-07:00)
Language:

Cosmos 1733 Rocket - Orbit

View from above orbital plane
View from above orbital plane
View from above satellite
View from above satellite

Ground track
Ground track

The orbit data is extracted from the following two-line orbital elements,

1 16612U 86018B   16236.57472068  .00000103  00000-0  94515-5 0  9999
2 16612  82.5155 215.6381 0019093  58.1894  57.0183 14.84096807547318
Epoch (UTC): 23 August 2016 13:47:35
Eccentricity: 0.0019093
inclination: 82.5155°
perigee height: 603 km
apogee height: 630 km
right ascension of ascending node: 215.6381°
argument of perigee: 58.1894°
revolutions per day: 14.84096807
mean anomaly at epoch: 57.0183°
orbit number at epoch: 54731

The dashed part of the orbit path shows where the satellite is in the earth's shadow,  

DLR